This is the latest recevied weather packets stored in our database for station/object KR4DFQ. If no packets are shown the sender has not sent any weather packets the latest 10 day(s).
| Time | Temp. | Humidity | Pressure | Rain* | Wind** | Luminosity | Snow |
|---|---|---|---|---|---|---|---|
| 1787759930 | 34.44° C | 54% | 1018.3 hPa | 0 mm | - | 883 W/m² | - |
| 1787759625 | 34.44° C | 54% | 1018.2 hPa | 0 mm | - | 1018 W/m² | - |
| 1787759322 | 34.44° C | 54% | 1018.3 hPa | 0 mm | - | 987 W/m² | - |
| 1787759022 | 35° C | 56% | 1018.1 hPa | 0 mm | - | 958 W/m² | - |
| 1787758721 | 34.44° C | 57% | 1018.5 hPa | 0 mm | - | 939 W/m² | - |
| 1787758417 | 34.44° C | 56% | 1018.4 hPa | 0 mm | - | 924 W/m² | - |
| 1787758116 | 33.89° C | 58% | 1018.4 hPa | 0 mm | - | 896 W/m² | - |
| 1787757812 | 33.89° C | 58% | 1018.1 hPa | 0 mm | - | 877 W/m² | - |
| 1787757507 | 33.89° C | 60% | 1018.4 hPa | 0 mm | - | 307 W/m² | - |
| 1787757201 | 33.89° C | 61% | 1018.5 hPa | 0 mm | - | 827 W/m² | - |
| 1787756900 | 33.33° C | 62% | 1018.5 hPa | 0 mm | - | 835 W/m² | - |
| 1787756596 | 32.78° C | 64% | 1018.5 hPa | 0 mm | - | 825 W/m² | - |
| 1787756295 | 33.33° C | 63% | 1018.4 hPa | 0 mm | - | 384 W/m² | - |
| 1787755990 | 33.33° C | 63% | 1018.2 hPa | 0 mm | - | 431 W/m² | - |
| 1787755689 | 33.33° C | 62% | 1018 hPa | 0 mm | - | 356 W/m² | - |
| 1787755384 | 33.89° C | 61% | 1018 hPa | 0 mm | - | 408 W/m² | - |
| 1787755084 | 33.33° C | 62% | 1018 hPa | 0 mm | - | 799 W/m² | - |
| 1787754778 | 32.78° C | 63% | 1017.8 hPa | 0 mm | - | 817 W/m² | - |
| 1787754475 | 32.78° C | 61% | 1018 hPa | 0 mm | - | 326 W/m² | - |
| 1787754171 | 32.22° C | 63% | 1017.9 hPa | 0 mm | - | 293 W/m² | - |
| 1787753865 | 32.22° C | 63% | 1017.9 hPa | 0 mm | - | 335 W/m² | - |
| 1787753564 | 32.78° C | 64% | 1017.8 hPa | 0 mm | - | 330 W/m² | - |
| 1787753263 | 32.78° C | 62% | 1017.7 hPa | 0 mm | - | 350 W/m² | - |
| 1787752958 | 33.33° C | 61% | 1017.8 hPa | 0 mm | - | 581 W/m² | - |
| 1787752657 | 33.33° C | 62% | 1017.5 hPa | 0 mm | - | 530 W/m² | - |
* Rain latest hour (hover to see other rain measurements)
** Current wind speed in m/s (hover to see current wind gust speed)